| time (UTC) | temp C | wind direction | speed KPH | gust KPH | rain 1hr cm | rain 24hr cm | rain mn cm | humidity % | barometer mb |
| 20260904004529 | 16 | 309 | 0.0 | 0.0 | 0.00 | 0.00 | 0.00 | 78 | 1020.9 |
| 20260904003025 | 16 | 309 | 0.0 | 0.0 | 0.00 | 0.00 | 0.00 | 79 | 1021.0 |
| 20260904001523 | 16 | 309 | 0.0 | 0.0 | 0.00 | 0.00 | 0.00 | 78 | 1021.2 |
| 20260904000021 | 16 | 309 | 0.0 | 0.0 | 0.00 | 0.00 | 0.00 | 77 | 1021.2 |
| 20260903234520 | 16 | 309 | 0.0 | 0.0 | 0.00 | 0.00 | 0.00 | 77 | 1021.2 |
| 20260903233032 | 16 | 309 | 0.0 | 0.0 | 0.00 | 0.00 | 0.00 | 77 | 1021.2 |
| 20260903231531 | 16 | 309 | 0.0 | 0.0 | 0.00 | 0.00 | 0.00 | 77 | 1021.4 |
| 20260903230017 | 16 | 309 | 0.0 | 0.0 | 0.00 | 0.00 | 0.00 | 76 | 1021.3 |
| 20260903224517 | 16 | 309 | 0.0 | 0.0 | 0.00 | 0.00 | 0.00 | 76 | 1021.3 |
| 20260903223015 | 16 | 309 | 0.0 | 0.0 | 0.00 | 0.00 | 0.00 | 77 | 1021.2 |
| 20260903221514 | 17 | 309 | 0.0 | 0.0 | 0.00 | 0.00 | 0.00 | 76 | 1021.3 |
| 20260903220010 | 17 | 309 | 0.0 | 0.0 | 0.00 | 0.00 | 0.00 | 74 | 1021.3 |
| 20260903214510 | 17 | 309 | 0.0 | 0.0 | 0.00 | 0.00 | 0.00 | 74 | 1021.3 |
| 20260903213009 | 17 | 309 | 0.0 | 0.0 | 0.00 | 0.00 | 0.00 | 74 | 1021.2 |
| 20260903211509 | 18 | 309 | 0.0 | 0.0 | 0.00 | 0.00 | 0.00 | 73 | 1021.5 |
| 20260903210009 | 18 | 309 | 0.0 | 0.0 | 0.00 | 0.00 | 0.00 | 72 | 1021.2 |
| 20260903204508 | 18 | 309 | 0.0 | 0.0 | 0.00 | 0.00 | 0.00 | 71 | 1021.2 |
| 20260903203008 | 18 | 309 | 0.0 | 0.0 | 0.00 | 0.00 | 0.00 | 69 | 1021.2 |
| 20260903201509 | 19 | 309 | 0.0 | 0.0 | 0.00 | 0.00 | 0.00 | 69 | 1021.0 |
| 20260903200007 | 19 | 309 | 0.0 | 0.0 | 0.00 | 0.00 | 0.00 | 68 | 1021.3 |
| 20260903194506 | 19 | 309 | 0.0 | 0.0 | 0.00 | 0.00 | 0.00 | 67 | 1021.4 |
| 20260903193011 | 19 | 309 | 0.0 | 0.0 | 0.00 | 0.00 | 0.00 | 66 | 1021.4 |
| 20260903191517 | 19 | 309 | 0.0 | 0.0 | 0.00 | 0.00 | 0.00 | 66 | 1021.1 |
| 20260903190005 | 20 | 309 | 0.0 | 0.0 | 0.00 | 0.00 | 0.00 | 64 | 1021.1 |
| 20260903184505 | 20 | 309 | 0.0 | 0.0 | 0.00 | 0.00 | 0.00 | 62 | 1020.8 |
| 20260903183004 | 20 | 309 | 0.0 | 0.0 | 0.00 | 0.00 | 0.00 | 60 | 1020.6 |
| 20260903181504 | 21 | 309 | 0.0 | 0.0 | 0.00 | 0.00 | 0.00 | 58 | 1020.5 |
| 20260903180003 | 22 | 309 | 0.0 | 0.0 | 0.00 | 0.00 | 0.00 | 56 | 1020.3 |
| 20260903174503 | 22 | 309 | 0.0 | 0.0 | 0.00 | 0.00 | 0.00 | 52 | 1020.5 |
| 20260903173003 | 23 | 309 | 0.0 | 0.0 | 0.00 | 0.00 | 0.00 | 50 | 1020.4 |
| 20260903171502 | 23 | 309 | 0.0 | 4.8 | 0.00 | 0.00 | 0.00 | 50 | 1020.2 |
| 20260903170001 | 24 | 294 | 0.0 | 3.2 | 0.00 | 0.00 | 0.00 | 47 | 1020.3 |
| 20260903164502 | 24 | 318 | 0.0 | 6.4 | 0.00 | 0.00 | 0.00 | 47 | 1020.2 |
| 20260903163002 | 25 | 302 | 1.6 | 6.4 | 0.00 | 0.00 | 0.00 | 45 | 1020.2 |
| 20260903161601 | 25 | 293 | 0.0 | 9.7 | 0.00 | 0.00 | 0.00 | 45 | 1020.1 |
| 20260903160100 | 25 | 260 | 0.0 | 8.0 | 0.00 | 0.00 | 0.00 | 45 | 1020.1 |
| 20260903154559 | 25 | 315 | 0.0 | 3.2 | 0.00 | 0.00 | 0.00 | 44 | 1020.2 |
| 20260903153107 | 26 | 298 | 0.0 | 6.4 | 0.00 | 0.00 | 0.00 | 44 | 1020.3 |
| 20260903151609 | 26 | 311 | 3.2 | 9.7 | 0.00 | 0.00 | 0.00 | 42 | 1020.3 |
| 20260903150104 | 25 | 300 | 0.0 | 6.4 | 0.00 | 0.00 | 0.00 | 44 | 1020.6 |
| 20260903144557 | 26 | 282 | 1.6 | 11.3 | 0.00 | 0.00 | 0.00 | 42 | 1020.4 |
| 20260903143055 | 26 | 285 | 1.6 | 9.7 | 0.00 | 0.00 | 0.00 | 43 | 1020.3 |
| 20260903141553 | 25 | 288 | 3.2 | 12.9 | 0.00 | 0.00 | 0.00 | 43 | 1020.3 |
| 20260903140104 | 25 | 220 | 1.6 | 9.7 | 0.00 | 0.00 | 0.00 | 44 | 1020.4 |
| 20260903134549 | 25 | 265 | 0.0 | 9.7 | 0.00 | 0.00 | 0.00 | 45 | 1020.5 |
| 20260903133047 | 25 | 231 | 0.0 | 4.8 | 0.00 | 0.00 | 0.00 | 45 | 1020.8 |
| 20260903131546 | 25 | 291 | 1.6 | 6.4 | 0.00 | 0.00 | 0.00 | 44 | 1020.9 |
| 20260903130047 | 25 | 267 | 0.0 | 4.8 | 0.00 | 0.00 | 0.00 | 47 | 1020.8 |
| 20260903124539 | 23 | 288 | 0.0 | 1.6 | 0.00 | 0.00 | 0.00 | 49 | 1021.1 |
| 20260903123038 | 23 | 288 | 0.0 | 1.6 | 0.00 | 0.00 | 0.00 | 52 | 1021.3 |
| 20260903121539 | 23 | 273 | 0.0 | 3.2 | 0.00 | 0.00 | 0.00 | 51 | 1021.2 |
| 20260903120046 | 23 | 273 | 0.0 | 6.4 | 0.00 | 0.00 | 0.00 | 50 | 1021.2 |
| 20260903114537 | 23 | 282 | 0.0 | 4.8 | 0.00 | 0.00 | 0.00 | 50 | 1021.3 |
| 20260903113035 | 23 | 267 | 0.0 | 3.2 | 0.00 | 0.00 | 0.00 | 49 | 1021.5 |
| 20260903111534 | 23 | 315 | 0.0 | 6.4 | 0.00 | 0.00 | 0.00 | 48 | 1021.7 |
| 20260903110032 | 23 | 277 | 0.0 | 9.7 | 0.00 | 0.00 | 0.00 | 48 | 1021.6 |
| 20260903104533 | 23 | 198 | 1.6 | 9.7 | 0.00 | 0.00 | 0.00 | 50 | 1022.0 |
| 20260903103032 | 23 | 292 | 0.0 | 4.8 | 0.00 | 0.00 | 0.00 | 52 | 1022.0 |
| 20260903101542 | 23 | 259 | 0.0 | 8.0 | 0.00 | 0.00 | 0.00 | 51 | 1022.1 |
| 20260903100033 | 23 | 255 | 0.0 | 6.4 | 0.00 | 0.00 | 0.00 | 51 | 1022.4 |
| 20260903094526 | 22 | 303 | 0.0 | 4.8 | 0.00 | 0.00 | 0.00 | 50 | 1022.0 |
| 20260903093025 | 22 | 295 | 0.0 | 8.0 | 0.00 | 0.00 | 0.00 | 53 | 1022.2 |
| 20260903091521 | 21 | 301 | 0.0 | 8.0 | 0.00 | 0.00 | 0.00 | 53 | 1022.6 |
| 20260903090017 | 21 | 317 | 0.0 | 9.7 | 0.00 | 0.00 | 0.00 | 56 | 1022.5 |
| 20260903084526 | 20 | 274 | 0.0 | 6.4 | 0.00 | 0.00 | 0.00 | 62 | 1022.2 |
| 20260903083019 | 19 | 232 | 0.0 | 4.8 | 0.00 | 0.00 | 0.00 | 69 | 1022.4 |
| 20260903081507 | 18 | 300 | 0.0 | 4.8 | 0.00 | 0.00 | 0.00 | 70 | 1022.6 |
| 20260903080006 | 17 | 286 | 0.0 | 4.8 | 0.00 | 0.00 | 0.00 | 74 | 1022.6 |
| 20260903074605 | 17 | 294 | 0.0 | 0.0 | 0.00 | 0.00 | 0.00 | 76 | 1022.7 |
| 20260903073057 | 16 | 294 | 0.0 | 1.6 | 0.00 | 0.00 | 0.00 | 79 | 1022.7 |
| 20260903071555 | 15 | 294 | 0.0 | 0.0 | 0.00 | 0.00 | 0.00 | 81 | 1022.8 |
| 20260903070054 | 15 | 294 | 0.0 | 1.6 | 0.00 | 0.00 | 0.00 | 83 | 1022.7 |
| 20260903064602 | 14 | 294 | 0.0 | 1.6 | 0.00 | 0.00 | 0.00 | 86 | 1022.4 |
| 20260903063054 | 13 | 294 | 0.0 | 0.0 | 0.00 | 0.00 | 0.00 | 88 | 1022.7 |
| 20260903061554 | 12 | 294 | 0.0 | 0.0 | 0.00 | 0.00 | 0.00 | 89 | 1022.6 |
| 20260903060055 | 12 | 294 | 0.0 | 0.0 | 0.00 | 0.00 | 0.00 | 91 | 1022.9 |
| 20260903054552 | 11 | 294 | 0.0 | 0.0 | 0.00 | 0.00 | 0.00 | 92 | 1022.8 |
| 20260903053103 | 11 | 294 | 0.0 | 0.0 | 0.00 | 0.00 | 0.00 | 92 | 1022.6 |
| 20260903051550 | 11 | 294 | 0.0 | 0.0 | 0.00 | 0.00 | 0.00 | 92 | 1022.3 |
| 20260903050046 | 11 | 294 | 0.0 | 0.0 | 0.00 | 0.00 | 0.00 | 91 | 1022.1 |
| 20260903044546 | 11 | 294 | 0.0 | 0.0 | 0.00 | 0.00 | 0.00 | 91 | 1021.9 |
| 20260903043044 | 11 | 294 | 0.0 | 0.0 | 0.00 | 0.00 | 0.00 | 91 | 1021.9 |
| 20260903041601 | 11 | 294 | 0.0 | 0.0 | 0.00 | 0.00 | 0.00 | 91 | 1022.0 |
| 20260903040057 | 11 | 294 | 0.0 | 0.0 | 0.00 | 0.00 | 0.00 | 91 | 1022.1 |
| 20260903034542 | 11 | 294 | 0.0 | 0.0 | 0.00 | 0.00 | 0.00 | 91 | 1022.2 |
| 20260903033044 | 11 | 294 | 0.0 | 0.0 | 0.00 | 0.00 | 0.00 | 91 | 1022.3 |
| 20260903031539 | 12 | 294 | 0.0 | 0.0 | 0.00 | 0.00 | 0.00 | 91 | 1022.1 |
| 20260903030042 | 12 | 294 | 0.0 | 0.0 | 0.00 | 0.00 | 0.00 | 90 | 1022.1 |
| 20260903024537 | 12 | 294 | 0.0 | 0.0 | 0.00 | 0.00 | 0.00 | 90 | 1022.1 |
| 20260903023036 | 12 | 294 | 0.0 | 0.0 | 0.00 | 0.00 | 0.00 | 90 | 1022.2 |
| 20260903021538 | 12 | 294 | 0.0 | 0.0 | 0.00 | 0.00 | 0.00 | 90 | 1022.1 |
| 20260903020033 | 12 | 294 | 0.0 | 0.0 | 0.00 | 0.00 | 0.00 | 90 | 1022.1 |
| 20260903014531 | 12 | 294 | 0.0 | 0.0 | 0.00 | 0.00 | 0.00 | 89 | 1022.1 |
| 20260903013029 | 13 | 294 | 0.0 | 0.0 | 0.00 | 0.00 | 0.00 | 88 | 1022.1 |
| 20260903011528 | 13 | 294 | 0.0 | 0.0 | 0.00 | 0.00 | 0.00 | 88 | 1022.2 |
| 20260903010026 | 13 | 294 | 0.0 | 0.0 | 0.00 | 0.00 | 0.00 | 88 | 1022.1 |